This is the latest recevied weather packets stored in our database for station/object EA5DFV. If no packets are shown the sender has not sent any weather packets the latest 10 day(s).
| Time | Temp. | Humidity | Pressure | Rain* | Wind** | Luminosity | Snow |
|---|---|---|---|---|---|---|---|
| 1777976920 | 23.89° C | 57% | 1011 hPa | 0 mm | - | 329 W/m² | - |
| 1777976610 | 23.89° C | 58% | 1011 hPa | 0 mm | - | 1018 W/m² | - |
| 1777976304 | 23.33° C | 57% | 1011 hPa | 0 mm | - | 919 W/m² | - |
| 1777975997 | 23.33° C | 61% | 1011.1 hPa | 0 mm | - | 877 W/m² | - |
| 1777975707 | 23.33° C | 62% | 1011.1 hPa | 0 mm | - | 872 W/m² | - |
| 1777975414 | 23.33° C | 62% | 1011.1 hPa | 0 mm | - | 861 W/m² | - |
| 1777975107 | 23.33° C | 60% | 1011.2 hPa | 0 mm | - | 849 W/m² | - |
| 1777974805 | 23.33° C | 64% | 1011.1 hPa | 0 mm | - | 826 W/m² | - |
| 1777974498 | 22.78° C | 64% | 1011.1 hPa | 0 mm | - | 842 W/m² | - |
| 1777974209 | 22.78° C | 64% | 1011.2 hPa | 0 mm | - | 807 W/m² | - |
| 1777973900 | 22.78° C | 65% | 1011.2 hPa | 0 mm | - | 779 W/m² | - |
| 1777973610 | 22.78° C | 68% | 1011.1 hPa | 0 mm | - | 747 W/m² | - |
| 1777973307 | 22.78° C | 68% | 1011.2 hPa | 0 mm | - | 758 W/m² | - |
| 1777973017 | 22.78° C | 68% | 1011.1 hPa | 0 mm | - | 752 W/m² | - |
| 1777972707 | 22.22° C | 68% | 1011.1 hPa | 0 mm | - | 759 W/m² | - |
| 1777972402 | 22.22° C | 67% | 1011.1 hPa | 0 mm | - | 733 W/m² | - |
| 1777972113 | 22.22° C | 69% | 1011.1 hPa | 0 mm | - | 722 W/m² | - |
| 1777971803 | 21.67° C | 70% | 1011.1 hPa | 0 mm | - | 689 W/m² | - |
| 1777971513 | 21.67° C | 68% | 1011.1 hPa | 0 mm | - | 693 W/m² | - |
| 1777971208 | 21.11° C | 69% | 1011.1 hPa | 0 mm | - | 675 W/m² | - |
| 1777970901 | 21.11° C | 69% | 1011.2 hPa | 0 mm | - | 680 W/m² | - |
| 1777970612 | 21.11° C | 70% | 1011.2 hPa | 0 mm | - | 654 W/m² | - |
| 1777970305 | 21.11° C | 69% | 1011.2 hPa | 0 mm | - | 100 W/m² | - |
| 1777970002 | 21.11° C | 72% | 1011.2 hPa | 0 mm | - | 628 W/m² | - |
| 1777969713 | 20.56° C | 71% | 1011.3 hPa | 0 mm | - | 621 W/m² | - |
* Rain latest hour (hover to see other rain measurements)
** Current wind speed in m/s (hover to see current wind gust speed)